Location: Saint-Hippolyte
(43.6394°N, 4.7559°E)
Time: 16:06:01
(UTC+00:00)

CZ-4B R/B - Pass Details

Date: 24 October 2020
Orbit: 389 x 462 km, 97.6° (Epoch: 23 November)

Event Time Altitude Azimuth Distance (km) Brightness Sun altitude
Rises 17:34:30 0° 7° (N) 2,417 5.0 -10.0°
Reaches altitude 10° 17:36:34 10° 3° (N) 1,530 4.0 -10.4°
Maximum altitude 17:39:45 52° 286° (WNW) 533 2.2 -10.9°
Drops below altitude 10° 17:42:49 10° 209° (SSW) 1,476 4.5 -11.5°
Sets 17:44:48 0° 204° (SSW) 2,320 5.5 -11.8°
